Location: Killarney
(45.9719°N, 81.5115°W)
Time: 21:13:53
(UTC-04:00)

ISS - Visible Passes

Search period start: 24 May 2024 00:00
Search period end: 03 June 2024 00:00
Orbit: 411 x 416 km, 51.6° (Epoch: 24 May)

Date Brightness Start Highest point End Pass type
(mag) Time Alt. Az. Time Alt. Az. Time Alt. Az.
24 May -3.5 21:52:54 10° WNW 21:56:15 69° NNE 21:59:32 10° ESE visible
24 May -2.0 23:30:03 10° W 23:32:23 21° SW 23:32:23 21° SW visible
25 May -2.8 22:40:57 10° WNW 22:44:04 34° SW 22:45:25 24° S visible
26 May -3.4 21:52:44 10° WNW 21:56:05 55° SSW 21:59:09 12° SE visible
27 May -1.4 22:43:10 10° W 22:45:06 14° SW 22:46:35 12° SSW visible
28 May -1.9 21:55:51 10° W 21:58:37 22° SW 22:01:21 10° S visible
